Location: Shenandoah County Park
(38.9356°N, 78.4524°W)
Time: 12:40:15
(UTC-05:00)

Tiros 1 - All Passes

Search period start: 30 January 2023 00:00
Search period end: 09 February 2023 00:00
Orbit: 628 x 662 km, 48.4° (Epoch: 30 January)

Date Brightness Start Highest point End Pass type
(mag) Time Alt. Az. Time Alt. Az. Time Alt. Az.
30 Jan - 00:27:42 10° S 00:30:54 19° SE 00:34:09 10° E night (unlit)
30 Jan - 02:07:58 10° WSW 02:12:36 83° NW 02:17:17 10° ENE night (unlit)
30 Jan - 03:51:08 10° WNW 03:55:14 30° NNW 03:59:23 10° NE visible
30 Jan - 05:34:24 10° NW 05:38:24 27° N 05:42:25 10° ENE visible
30 Jan - 07:16:35 10° NW 07:21:15 58° NNE 07:25:56 10° ESE daylight
30 Jan - 08:59:03 10° WNW 09:03:14 31° SW 09:07:26 10° SSE daylight
31 Jan - 00:51:40 10° SSW 00:56:00 42° SE 01:00:24 10° ENE night (unlit)
31 Jan - 02:33:42 10° W 02:38:09 46° NNW 02:42:39 10° NE night (unlit)
31 Jan - 04:17:13 10° WNW 04:21:07 25° N 04:25:03 10° NE visible
31 Jan - 05:59:56 10° NW 06:04:14 34° NNE 06:08:33 10° E visible
31 Jan - 07:41:59 10° WNW 07:46:42 75° SW 07:51:27 10° SE daylight
31 Jan - 09:25:53 10° W 09:28:15 14° SW 09:30:38 10° SSW daylight
31 Jan - 23:36:44 10° S 23:39:40 17° SE 23:42:37 10° E night (unlit)
01 Feb - 01:16:41 10° SW 01:21:18 90° NNW 01:25:58 10° ENE night (unlit)
01 Feb - 02:59:45 10° WNW 03:03:53 31° NNW 03:08:03 10° NE visible
01 Feb - 04:43:05 10° NW 04:47:01 26° N 04:51:00 10° ENE visible
01 Feb - 06:25:18 10° NW 06:29:55 53° NNE 06:34:33 10° ESE visible
01 Feb - 08:07:40 10° WNW 08:11:57 35° SW 08:16:16 10° SSE daylight
02 Feb - 00:00:29 10° SSW 00:04:44 38° SE 00:09:01 10° ENE night (unlit)
02 Feb - 01:42:20 10° W 01:46:49 49° NNW 01:51:21 10° NE night (unlit)
02 Feb - 03:25:51 10° WNW 03:29:45 26° N 03:33:40 10° NE visible
02 Feb - 05:08:38 10° NW 05:12:52 33° NNE 05:17:08 10° E visible
02 Feb - 06:50:41 10° WNW 06:55:24 82° SW 07:00:09 10° SE visible
02 Feb - 08:34:15 10° W 08:37:00 15° SW 08:39:46 10° SSW daylight
02 Feb - 22:45:51 10° SSE 22:48:26 15° SE 22:51:01 10° E night (unlit)
03 Feb - 00:25:24 10° SW 00:30:00 83° SSE 00:34:39 10° ENE night (unlit)
03 Feb - 02:08:21 10° W 02:12:31 32° NNW 02:16:43 10° NE night (unlit)
03 Feb - 03:51:45 10° NW 03:55:39 26° N 03:59:35 10° ENE visible
03 Feb - 05:34:00 10° NW 05:38:34 50° NNE 05:43:10 10° E visible
03 Feb - 07:16:18 10° WNW 07:20:40 38° SW 07:25:04 10° SSE daylight
03 Feb - 23:09:19 10° SSW 23:13:28 34° SE 23:17:38 10° ENE night (unlit)
04 Feb - 00:50:59 10° WSW 00:55:29 52° NNW 01:00:02 10° NE night (unlit)
04 Feb - 02:34:28 10° WNW 02:38:22 26° N 02:42:18 10° NE night (unlit)
04 Feb - 04:17:20 10° NW 04:21:30 31° NNE 04:25:42 10° ENE visible
04 Feb - 05:59:22 10° WNW 06:04:05 89° SW 06:08:49 10° SE visible
04 Feb - 07:42:41 10° W 07:45:44 17° SW 07:48:48 10° S daylight
04 Feb - 21:55:02 10° SSE 21:57:11 13° SE 21:59:20 10° ESE night (unlit)
04 Feb - 23:34:07 10° SW 23:38:42 76° SE 23:43:19 10° ENE night (unlit)
05 Feb - 01:16:58 10° W 01:21:10 33° NNW 01:25:24 10° NE night (unlit)
05 Feb - 03:00:24 10° NW 03:04:16 25° N 03:08:10 10° ENE visible
05 Feb - 04:42:43 10° NW 04:47:14 46° NNE 04:51:46 10° E visible
05 Feb - 06:24:57 10° WNW 06:29:23 42° SW 06:33:50 10° SSE visible
05 Feb - 22:18:09 10° SSW 22:22:11 31° SE 22:26:14 10° ENE night (unlit)
05 Feb - 23:59:37 10° WSW 00:04:09 56° NNW 00:08:43 10° NE night (unlit)
06 Feb - 01:43:05 10° WNW 01:46:59 26° N 01:50:56 10° NE night (unlit)
06 Feb - 03:26:01 10° NW 03:30:08 30° NNE 03:34:16 10° ENE visible
06 Feb - 05:08:04 10° WNW 05:12:45 84° NNE 05:17:29 10° ESE visible
06 Feb - 06:51:09 10° W 06:54:28 19° SW 06:57:48 10° S daylight
06 Feb - 21:04:23 10° SSE 21:05:56 12° SE 21:07:29 10° ESE night (unlit)
06 Feb - 22:42:50 10° SW 22:47:23 68° SE 22:51:59 10° ENE night (unlit)
07 Feb - 00:25:34 10° W 00:29:48 35° NNW 00:34:04 10° NE night (unlit)
07 Feb - 02:09:02 10° NW 02:12:53 25° N 02:16:46 10° ENE night (unlit)
07 Feb - 03:51:25 10° NW 03:55:52 43° NNE 04:00:21 10° E visible
07 Feb - 05:33:35 10° WNW 05:38:05 47° SW 05:42:35 10° SSE visible
07 Feb - 21:27:01 10° SSW 21:30:55 28° SE 21:34:49 10° ENE night (unlit)
07 Feb - 23:08:15 10° WSW 23:12:49 61° NNW 23:17:24 10° NE night (unlit)
08 Feb - 00:51:41 10° WNW 00:55:36 27° N 00:59:34 10° NE night (unlit)
08 Feb - 02:34:42 10° NW 02:38:45 29° NNE 02:42:50 10° ENE night (unlit)
08 Feb - 04:16:45 10° NW 04:21:25 77° NNE 04:26:07 10° ESE visible
08 Feb - 05:59:40 10° W 06:03:11 21° SW 06:06:44 10° S visible
08 Feb - 20:14:29 10° SE 20:14:41 10° SE 20:14:53 10° SE night (unlit)
08 Feb - 21:51:34 10° SW 21:56:05 62° SE 22:00:38 10° ENE night (unlit)
08 Feb - 23:34:09 10° W 23:38:26 37° NNW 23:42:44 10° NE night (unlit)
